This is the latest recevied weather packets stored in our database for station/object 4S6DRJ-13. If no packets are shown the sender has not sent any weather packets the latest 10 day(s).
| Time | Temp. | Humidity | Pressure | Rain* | Wind** | Luminosity | Snow |
|---|---|---|---|---|---|---|---|
| 1788026588 | 27.78° C | 84% | 1011.1 hPa | 0 mm | 0.89 m/s, 235° | 0 W/m² | - |
| 1788026527 | 27.78° C | 84% | 1011 hPa | 0 mm | 0 m/s | 0 W/m² | - |
| 1788026466 | 27.78° C | 84% | 1011.1 hPa | 0 mm | 0.45 m/s, 222° | 0 W/m² | - |
| 1788026405 | 27.78° C | 84% | 1011.3 hPa | 0 mm | 0 m/s | 0 W/m² | - |
| 1788026344 | 27.78° C | 84% | 1011.2 hPa | 0 mm | 0.45 m/s, 277° | 0 W/m² | - |
| 1788026283 | 27.78° C | 84% | 1011.3 hPa | 0 mm | 0.45 m/s, 255° | 0 W/m² | - |
| 1788026222 | 27.78° C | 85% | 1011.1 hPa | 0 mm | 1.34 m/s, 197° | 0 W/m² | - |
| 1788026161 | 27.78° C | 85% | 1011.2 hPa | 0 mm | 0 m/s | 0 W/m² | - |
| 1788026114 | 27.78° C | 85% | 1011.3 hPa | 0 mm | 0.89 m/s, 226° | 0 W/m² | - |
| 1788026039 | 27.78° C | 85% | 1011.5 hPa | 0 mm | 0.89 m/s, 238° | 0 W/m² | - |
| 1788025978 | 27.78° C | 85% | 1011.3 hPa | 0 mm | 0.89 m/s, 204° | 0 W/m² | - |
| 1788025917 | 27.78° C | 85% | 1011.3 hPa | 0 mm | 0.45 m/s, 240° | 0 W/m² | - |
| 1788025856 | 27.78° C | 85% | 1011.3 hPa | 0 mm | 1.34 m/s, 217° | 0 W/m² | - |
| 1788025795 | 27.78° C | 85% | 1011.3 hPa | 0 mm | 1.34 m/s, 245° | 0 W/m² | - |
| 1788025734 | 27.78° C | 85% | 1011.4 hPa | 0 mm | 1.34 m/s, 218° | 0 W/m² | - |
| 1788025673 | 27.78° C | 85% | 1011.5 hPa | 0 mm | 1.34 m/s, 214° | 0 W/m² | - |
| 1788025612 | 27.78° C | 85% | 1011.3 hPa | 0 mm | 0.89 m/s, 224° | 0 W/m² | - |
| 1788025551 | 27.78° C | 85% | 1011.4 hPa | 0 mm | 2.24 m/s, 245° | 0 W/m² | - |
| 1788025489 | 27.78° C | 85% | 1011.4 hPa | 0 mm | 0.45 m/s, 147° | 0 W/m² | - |
| 1788025428 | 27.78° C | 85% | 1011.3 hPa | 0 mm | 1.34 m/s, 232° | 0 W/m² | - |
| 1788025368 | 27.78° C | 85% | 1011.4 hPa | 0 mm | 0.45 m/s, 206° | 0 W/m² | - |
| 1788025307 | 27.78° C | 85% | 1011.1 hPa | 0 mm | 0.45 m/s, 172° | 0 W/m² | - |
| 1788025246 | 27.78° C | 85% | 1011.2 hPa | 0 mm | 0 m/s | 0 W/m² | - |
| 1788025184 | 27.78° C | 85% | 1011.5 hPa | 0 mm | 0.45 m/s, 179° | 0 W/m² | - |
| 1788025123 | 27.78° C | 85% | 1011.3 hPa | 0 mm | 0.45 m/s, 211° | 0 W/m² | - |
* Rain latest hour (hover to see other rain measurements)
** Current wind speed in m/s (hover to see current wind gust speed)